map of TER home
TER - Airport
Location
City:  Terceira, Região Autónoma dos Açores (Azores), Portugal
Name:Aeroporto das Lajes
ICAO:LPLA
IATA:TER

Details
Type:Airport (Aerodrome, Airfield)
Use:Public/Civil, Military, International (customs port of entry)
Latitude:38°45'43"N (38.761842)
Longitude:27°05'27"W (-27.090796)
Datum:WGS 1984
Elevation:180 ft (55 m)
Variation:8.93°W (WMM2015 magnetic declination)
0.15° annual change
Runways:1
Longest:10870 × 197 ft (3313 × 60 m), paved

Time
Time Zone:UTC-1 (DST+0)
Local Time:

Weather
METAR:LPLA 150600Z /////KT 9999 FEW020 BKN025 17/15 Q1030
TAF:LPLA 150503Z 1506/1606 30008KT 9999 SCT025= TAF LPPD 150500Z 1506/1606 32008KT 9999 FEW018 SCT030
TEMPO 1506/1606 SCT015 PROB30
TEMPO 1506/1606 5000 DZ SCT005 BKN010

Related Locations
Nearby:
Farthest:XMC: 12249 mi / 19713 km
Mallacoota, Vic, AU

Find:

   beyond  
but within

Other Information
Maps:
NOTAMs:
Links:
Sources:

  
flag of Portugal
flag of Região Autónoma dos Açores (Azores)
  

Airport Diagram

Airport diagram for TER

Larger airport diagram (OBSOLETE) from NGA

Sectional Chart

Flight Planning
at skyvector.com

Satellite Image

Google Maps Satellite view

 

Copyright © 2004-2017 Karl L. Swartz. All rights reserved.
The Great Circle Mapper name and logo are trademarks of the Great Circle Mapper.
All other trademarks mentioned herein belong to their respective owners.
Please see credits for attibutions and further copyright information.

  Follow gcmap on Facebook Follow gcmap on Twitter Follow gcmap on Google+ GCmap on LinkedIn

hCard Microformat

Geo Microformat